(248308) = 2005 NQ11 = 2006 UM186

Discovered at Palomar on 2005-07-04 by NEAT.

Orbit

Orbit type: Main Belt

Note: WebGL enabled browser required.

epoch2023-09-13.0
epoch JD2460200.5
perihelion date2022-06-10.70333
perihelion JD2459741.20333
argument of perihelion (°)3.29821
ascending node (°)253.70439
inclination (°)10.75374
eccentricity0.0846860
perihelion distance (AU)2.4017520
Tisserand w.r.t. Jupiter3.4
ΔV w.r.t. Earth (km/sec)10.3
semimajor axis (AU)2.6239650
mean anomaly (°)106.50257
mean daily motion (°/day)0.23188190
aphelion distance (AU)2.846
period (years)4.25
P-vector [x]-0.22587667
P-vector [y]-0.89798642
P-vector [z]-0.37762432
Q-vector [x]0.95755192
Q-vector [y]-0.27593198
Q-vector [z]0.08340176
absolute magnitude16.06
phase slope0.15
uncertainty0
referenceMPEC 2024-A141
observations used636
oppositions15
arc length (days)7289
first opposition used2004
last opposition used2024
residual rms (arc-secs)0.67
perturbers coarse indicatorM-v
perturbers precise indicator003Ek
first observation date used2004-01-27.0
last observation date used2024-01-11.0
computer nameMPCLINUX
JD of orbit computation2456937.218349
perihelion JD uncertainty (days)2.0387E-04
argument of perihelion uncertainty (°)6.3981E-05
ascending node uncertainty (°)3.9634E-05
inclination uncertainty (°)4.2721E-06
eccentricity uncertainty 5.5995E-08
perihelion distance uncertainty (AU)1.3910E-07
Minimum Orbit Intersection Distances (in AU)
for orbit epoch: 2460200.5, reference: E2024-AE1
Mercury1.93628
Venus1.67567
Earth1.38615
Mars0.8823
Jupiter2.1969
Saturn6.21018
Uranus15.8523
Neptune27.0629

Observations

647 total observations over interval: 2004 01 27.23764 – 2024 01 11.089894
These data are available for download (format description).

Date (UT) J2000 RA J2000 Dec Magn Location Ref
2004 01 27.23764 08 53 07.05 +02 50 08.7 19.4 R 699 – Lowell Observatory-LONEOS MPS 185484
2004 01 27.25592 08 53 05.90 +02 50 10.2   699 – Lowell Observatory-LONEOS MPS 185484
2004 01 27.27671 08 53 04.79 +02 50 10.8   699 – Lowell Observatory-LONEOS MPS 185484
2004 01 27.29504 08 53 03.72 +02 50 12.4   699 – Lowell Observatory-LONEOS MPS 185484
2005 06 16.35829 16 47 04.84 -21 01 34.7 18.5 V G96 – Mt. Lemmon Survey MPS 138011
2005 06 16.36363 16 47 04.56 -21 01 32.5 18.5 V G96 – Mt. Lemmon Survey MPS 138011
2005 06 16.36892 16 47 04.27 -21 01 30.4 18.5 V G96 – Mt. Lemmon Survey MPS 138011
2005 06 16.37425 16 47 03.98 -21 01 28.4 18.5 V G96 – Mt. Lemmon Survey MPS 138011
2005 07 04.23382 16 34 40.61 -19 13 13.1 19.1   644 – Palomar Mountain/NEAT MPS 137528
2005 07 04.27141 16 34 39.44 -19 13 01.2 19.2   644 – Palomar Mountain/NEAT MPS 137528
2005 07 04.31562 16 34 38.05 -19 12 47.3 19.4   644 – Palomar Mountain/NEAT MPS 137528
2005 07 05.25395 16 34 11.96 -19 07 56.4 19.1 V G96 – Mt. Lemmon Survey MPS 137528
2005 07 05.26194 16 34 11.78 -19 07 53.7 19.0 V G96 – Mt. Lemmon Survey MPS 137528
2005 07 05.26990 16 34 11.53 -19 07 51.4 18.9 V G96 – Mt. Lemmon Survey MPS 137528
2005 07 05.27788 16 34 11.28 -19 07 49.0 18.9 V G96 – Mt. Lemmon Survey MPS 137528
2006 09 16.40685 01 07 46.52 +22 29 50.2 19.3 V 703 – Catalina Sky Survey MPS 185484
2006 09 16.41300 01 07 46.27 +22 29 48.9 19.6 V 703 – Catalina Sky Survey MPS 185484
2006 09 16.41914 01 07 46.12 +22 29 47.8 20.5 V 703 – Catalina Sky Survey MPS 185484
2006 09 16.42529 01 07 45.62 +22 29 47.5 20.8 V 703 – Catalina Sky Survey MPS 185484
2006 09 28.27947 00 58 51.67 +21 42 32.3 20.3 V 703 – Catalina Sky Survey MPS 185484
2006 09 28.28782 00 58 51.24 +21 42 30.7 20.3 V 703 – Catalina Sky Survey MPS 185484
2006 09 28.29618 00 58 50.80 +21 42 25.8 19.7 V 703 – Catalina Sky Survey MPS 185484
2006 09 28.30453 00 58 50.41 +21 42 25.0 19.4 V 703 – Catalina Sky Survey MPS 185484
2006 10 10.27644 00 48 39.88 +20 24 45.5 19.4 R 644 – Palomar Mountain/NEAT MPS 185484
2006 10 10.29690 00 48 38.82 +20 24 36.4 19.8 R 644 – Palomar Mountain/NEAT MPS 185484
2006 10 10.31739 00 48 37.71 +20 24 27.0 20.0 R 644 – Palomar Mountain/NEAT MPS 185484
2006 10 17.39726 00 42 45.32 +19 28 03.6 20.1 V 703 – Catalina Sky Survey MPS 185735
2006 10 17.40471 00 42 44.96 +19 28 02.3 20.6 V 703 – Catalina Sky Survey MPS 185735
2006 10 17.41216 00 42 44.56 +19 27 55.6 19.1 V 703 – Catalina Sky Survey MPS 185735
2006 10 17.41973 00 42 44.31 +19 27 53.2 19.9 V 703 – Catalina Sky Survey MPS 185735
2006 10 22.30401 00 38 59.51 +18 46 13.8 19.6 R 644 – Palomar Mountain/NEAT MPS 185735
2006 10 22.32460 00 38 58.60 +18 46 03.3 19.9 R 644 – Palomar Mountain/NEAT MPS 185735
2006 10 22.34527 00 38 57.65 +18 45 52.4 19.6 R 644 – Palomar Mountain/NEAT MPS 185735
2009 04 16.70384 14 34 18.69 -26 23 34.5 19.2 V E12 – Siding Spring Survey MPS 283738
2009 04 16.71406 14 34 18.08 -26 23 29.5 19.2 V E12 – Siding Spring Survey MPS 283738
2009 04 16.72426 14 34 17.54 -26 23 26.2 19.6 V E12 – Siding Spring Survey MPS 283738
2009 04 16.73450 14 34 17.14 -26 23 23.2 19.5 V E12 – Siding Spring Survey MPS 283738
2009 04 30.26745 14 22 52.24 -24 48 30.2 19.0 V 703 – Catalina Sky Survey MPS 285685
2009 04 30.27530 14 22 51.81 -24 48 27.6 18.8 V 703 – Catalina Sky Survey MPS 285685
2009 04 30.28329 14 22 51.38 -24 48 24.2 18.8 V 703 – Catalina Sky Survey MPS 285685
2009 04 30.29117 14 22 51.06 -24 48 20.3 18.8 V 703 – Catalina Sky Survey MPS 285685
2009 05 05.60043 14 18 17.64 -24 02 47.4 19.1 V E12 – Siding Spring Survey MPS 286428
2009 05 05.62873 14 18 16.09 -24 02 33.2 19.2 V E12 – Siding Spring Survey MPS 286428
2009 05 05.64286 14 18 15.44 -24 02 25.3 19.1 V E12 – Siding Spring Survey MPS 286428
2010 06 14.935141 23 18 52.72 +07 55 48.9   C51 – WISE MPS 333552
2010 06 15.067446 23 18 58.85 +07 57 06.5   C51 – WISE MPS 333552
2010 06 15.199749 23 19 05.00 +07 58 23.8   C51 – WISE MPS 333552
2010 06 15.332052 23 19 11.05 +07 59 40.7   C51 – WISE MPS 333552
2010 06 15.398141 23 19 14.07 +08 00 19.0   C51 – WISE MPS 333552
2010 06 15.46423 23 19 17.22 +08 00 57.5   C51 – WISE MPS 333552
2010 06 15.46436 23 19 17.12 +08 00 57.3   C51 – WISE MPS 333552
2010 06 15.530444 23 19 20.15 +08 01 36.2   C51 – WISE MPS 333552
2010 06 15.596532 23 19 23.16 +08 02 15.4   C51 – WISE MPS 333552
2010 06 15.596660 23 19 23.18 +08 02 15.4   C51 – WISE MPS 333552
2010 06 15.662749 23 19 26.17 +08 02 53.2   C51 – WISE MPS 333552
2010 06 15.728837 23 19 29.22 +08 03 32.3   C51 – WISE MPS 333552
2010 06 15.79505 23 19 32.23 +08 04 10.5   C51 – WISE MPS 333552
2010 06 15.927356 23 19 38.22 +08 05 27.8   C51 – WISE MPS 333552
2010 06 16.059660 23 19 44.23 +08 06 44.0   C51 – WISE MPS 333552
2010 06 16.191964 23 19 50.16 +08 08 00.7   C51 – WISE MPS 333552
2010 06 16.324267 23 19 56.17 +08 09 17.5   C51 – WISE MPS 333552
2010 08 14.32173 23 28 04.98 +14 10 01.7 20.0   704 – Lincoln Laboratory ETS, New Mexico MPS 344867
2010 08 14.33394 23 28 04.45 +14 10 02.9 20.3   704 – Lincoln Laboratory ETS, New Mexico MPS 344867
2010 08 14.34610 23 28 04.08 +14 10 01.8 20.3   704 – Lincoln Laboratory ETS, New Mexico MPS 344867
2010 08 14.35823 23 28 03.62 +14 10 02.5 20.5   704 – Lincoln Laboratory ETS, New Mexico MPS 344867
2010 09 04.39516 23 12 58.93 +13 32 29.6 19.3 V G96 – Mt. Lemmon Survey MPS 347848
2010 09 04.40175 23 12 58.57 +13 32 28.1 19.7 V G96 – Mt. Lemmon Survey MPS 347848
2010 09 04.40832 23 12 58.21 +13 32 26.4 19.6 V G96 – Mt. Lemmon Survey MPS 347848
2010 09 04.41491 23 12 57.88 +13 32 25.0 19.6 V G96 – Mt. Lemmon Survey MPS 347848
2010 09 07.521779 23 10 21.183 +13 18 00.70 19.93 g F51 – Pan-STARRS 1, Haleakala MPS 366760
2010 09 07.539009 23 10 20.294 +13 17 55.55 19.99 g F51 – Pan-STARRS 1, Haleakala MPS 366760
2010 09 13.24184 23 05 32.01 +12 46 21.4 19.3   704 – Lincoln Laboratory ETS, New Mexico MPS 349339
2010 09 13.25406 23 05 31.36 +12 46 17.2 20.2   704 – Lincoln Laboratory ETS, New Mexico MPS 349339
2010 09 13.29110 23 05 29.44 +12 46 03.3 19.4   704 – Lincoln Laboratory ETS, New Mexico MPS 349339
2010 09 26.336790 22 55 20.753 +11 15 28.52 19.47 i F51 – Pan-STARRS 1, Haleakala MPS 366760
2010 09 26.349137 22 55 20.213 +11 15 22.97 19.61 i F51 – Pan-STARRS 1, Haleakala MPS 366760
2010 09 28.263774 22 54 02.466 +11 00 43.36 19.67 r F51 – Pan-STARRS 1, Haleakala MPS 366760
2010 09 28.274681 22 54 02.016 +11 00 38.39 19.66 r F51 – Pan-STARRS 1, Haleakala MPS 366760
2011 11 18.46567 06 13 54.30 +21 28 06.3 20.0 V G96 – Mt. Lemmon Survey MPS 400975
2011 11 18.47251 06 13 54.12 +21 28 03.8 19.3 V G96 – Mt. Lemmon Survey MPS 400975
2011 11 18.47947 06 13 53.86 +21 28 03.2 19.9 V G96 – Mt. Lemmon Survey MPS 400975
2011 11 18.48645 06 13 53.58 +21 28 02.2 20.1 V G96 – Mt. Lemmon Survey MPS 400975
2011 12 06.37036 06 00 08.950 +20 24 56.25 19.9 i F51 – Pan-STARRS 1, Haleakala MPS 404188
2011 12 06.38514 06 00 08.085 +20 24 53.05 19.9 i F51 – Pan-STARRS 1, Haleakala MPS 404188
2013 02 26.31890 12 28 30.69 -19 56 29.2 17.7 K W91 – VHS-VISTA, Cerro Paranal MPS 678265
2013 02 26.32397 12 28 30.54 -19 56 29.3 19.0 J W91 – VHS-VISTA, Cerro Paranal MPS 678265
2013 02 26.32531 12 28 30.49 -19 56 29.3 18.8 J W91 – VHS-VISTA, Cerro Paranal MPS 678265
2013 02 26.33052 12 28 30.34 -19 56 29.5 19.1 Y W91 – VHS-VISTA, Cerro Paranal MPS 678265
2013 02 26.33263 12 28 30.27 -19 56 29.6 19.0 Y W91 – VHS-VISTA, Cerro Paranal MPS 678265
2013 03 07.31864 12 23 14.23 -19 50 38.7 19.8 R 926 – Tenagra II Observatory, Nogales MPS 459051
2013 03 07.33643 12 23 13.48 -19 50 36.4 19.7 R 926 – Tenagra II Observatory, Nogales MPS 459051
2013 03 07.35114 12 23 12.87 -19 50 35.4 19.9 R 926 – Tenagra II Observatory, Nogales MPS 459051
2013 03 15.26163 12 17 20.03 -19 27 34.8 19.7 G G45 – Space Surveillance Telescope, Atom Site MPS 1608370
2013 03 15.34196 12 17 16.11 -19 27 15.0 19.6 G G45 – Space Surveillance Telescope, Atom Site MPS 1608370
2013 03 15.35606 12 17 15.37 -19 27 12.3 19.8 G G45 – Space Surveillance Telescope, Atom Site MPS 1608370
2013 03 15.38762 12 17 13.78 -19 27 04.1 19.9 G G45 – Space Surveillance Telescope, Atom Site MPS 1608370
